CDT,Max TemperatureF,Mean TemperatureF,Min TemperatureF,Max Dew PointF,MeanDew PointF,Min DewpointF,Max Humidity, Mean Humidity, Min Humidity, Max Sea Level PressureIn, Mean Sea Level PressureIn, Min Sea Level PressureIn, Max VisibilityMiles, Mean VisibilityMiles, Min VisibilityMiles, Max Wind SpeedMPH, Mean Wind SpeedMPH, Max Gust SpeedMPH,PrecipitationIn, CloudCover, Events, WindDirDegrees
2011-10-1,60,48,35,38,35,31,93,70,36,30.39,30.32,30.28,10,10,10,7,4,,0.00,0,,8
2011-10-2,69,50,32,43,35,30,100,81,30,30.32,30.28,30.17,10,5,0,8,1,,0.00,2,Fog,270
2011-10-3,78,58,37,49,43,36,93,72,31,30.26,30.21,30.18,10,9,2,8,1,,0.00,0,,16
2011-10-4,78,58,39,50,42,37,100,82,34,30.30,30.26,30.16,10,6,0,7,1,,0.00,2,Fog,136
2011-10-5,82,62,41,50,45,39,93,71,27,30.23,30.18,30.12,10,8,1,10,2,,0.00,0,,109
2011-10-6,81,62,43,51,48,41,93,60,31,30.23,30.17,30.13,10,9,2,12,4,16,0.00,0,,124
2011-10-7,82,68,55,54,49,45,78,49,30,30.21,30.14,30.09,10,10,8,21,10,28,0.00,0,,151
2011-10-8,82,70,59,54,51,47,72,52,33,30.23,30.18,30.14,10,10,10,14,8,26,0.00,0,,189
2011-10-9,80,66,51,54,49,46,86,59,38,30.32,30.25,30.20,10,10,9,10,4,,0.00,0,,136
2011-10-10,79,60,42,51,46,42,100,70,32,30.20,30.11,30.00,10,7,0,10,3,,0.00,0,Fog,124
2011-10-11,73,62,51,61,55,50,100,85,64,30.02,29.93,29.88,10,6,1,7,4,,0.27,4,Rain,117
2011-10-12,64,56,48,60,54,48,100,92,78,29.89,29.79,29.60,10,3,0,12,2,,0.54,7,Fog-Rain-Thunderstorm,97
2011-10-13,69,60,52,58,54,43,96,83,51,29.61,29.56,29.49,10,6,2,24,6,32,0.06,7,Rain,296
2011-10-14,61,53,46,43,38,32,83,60,37,29.70,29.62,29.56,10,10,10,26,12,37,0.00,3,,283
2011-10-15,61,53,45,41,35,31,74,52,32,29.88,29.80,29.71,10,10,10,23,15,33,0.00,1,Rain,280
2011-10-16,62,54,46,44,36,27,86,56,30,29.85,29.82,29.79,10,10,10,21,8,33,0.00,3,Rain,283
2011-10-17,59,49,41,32,29,25,67,49,28,29.85,29.83,29.78,10,10,10,20,11,28,0.00,0,,272
2011-10-18,50,39,30,35,32,27,89,71,56,29.94,29.88,29.80,10,10,10,15,6,20,0.00,5,,320
2011-10-19,48,44,39,35,33,31,73,62,50,29.95,29.89,29.82,10,10,10,18,13,28,0.00,6,,360
2011-10-20,54,46,39,32,30,29,68,57,41,29.94,29.79,29.74,10,10,10,23,14,34,0.00,3,,333
2011-10-21,57,42,28,32,28,25,92,66,29,30.09,30.04,29.96,10,10,9,10,4,,0.00,0,,263
2011-10-22,64,47,30,36,31,27,89,69,32,30.06,30.03,30.00,10,10,10,13,3,16,0.00,0,,295
2011-10-23,66,46,26,50,37,25,93,77,39,30.00,29.91,29.78,10,8,1,13,2,21,0.16,4,Rain-Thunderstorm,244
2011-10-24,63,47,32,43,36,30,100,83,41,30.09,30.01,29.92,10,5,0,12,2,20,0.00,1,Fog,246
2011-10-25,69,56,45,49,44,41,87,72,51,30.02,29.85,29.72,10,9,5,17,7,22,0.01,6,,68
2011-10-26,51,45,39,41,35,29,85,72,46,30.04,29.99,29.90,10,10,10,15,9,21,0.00,5,,9
2011-10-27,52,42,33,38,33,30,89,76,46,30.14,30.06,30.00,10,10,4,9,3,23,0.02,3,Rain,273
2011-10-28,55,40,26,39,29,24,100,85,34,30.16,30.11,30.00,10,5,0,14,1,20,0.00,3,Fog,134
2011-10-29,54,38,24,31,25,22,93,70,30,30.11,30.06,30.02,10,8,2,8,2,,0.00,1,,265
2011-10-30,48,42,36,45,37,23,87,74,40,30.05,29.90,29.81,10,9,5,14,8,23,0.03,8,Rain,192
2011-10-31,46,40,33,38,35,30,89,76,59,30.09,30.02,29.93,10,9,6,7,3,,0.00,7,,246